Home   Weather   Meyrin   Past weeks

Flag for Switzerland Past Weather in Meyrin, Geneva, Switzerland — Yesterday and Last 2 Weeks

Now
30 °F

Ice fog.


Feels Like: 27 °F
Forecast: 31 / 52 °F
Wind: 3 mph from South

Location: Geneva Cointrin Airport

Current Time: Dec 9, 2016 at 9:02:24 am

Latest Report: Dec 9, 2016 at 8:20 am


Visibility: 1 mi

Pressure: 30.57 "Hg

Humidity: 100%

Dew Point: 30 °F

Location of MeyrinLocation

Past Weather in Meyrin — Graph

°F

Meyrin Temperature Yesterday

Maximum temperature yesterday: 34 °F (at 2:20 am)
Minimum temperature yesterday: 28 °F (at 11:50 pm)
Average temperature yesterday: 32 °F

High & Low Weather Summary for the Past Weeks

 TemperatureHumidityPressure
High52 °F (Nov 24, 1:20 pm)100% (Nov 24, 8:20 am)30.63 "Hg (Nov 24, 8:20 am)
Low25 °F (Nov 30, 5:50 am)56% (Nov 28, 7:20 pm)29.80 "Hg (Nov 25, 1:20 am)
Average38 °F87%30.25 "Hg
* Reported Nov 24 7:20 am — Dec 9 7:50 am, Meyrin, Weather by CustomWeather, © 2016

Note: Actual official high and low records may vary slightly from our data, if they occured in-between our weather recording intervals... More about our weather records

Advertising

Meyrin Weather History for the Previous 24 Hours

Scroll right to see more
 ConditionsComfort  
Time TempWeatherWind HumidityBarometerVisibility
7:50 am
Fri, Dec 9
30 °FIce fog.2 mph100%30.54 "Hg1 mi
7:20 am28 °FIce fog.2 mph100%30.54 "Hg1 mi
6:50 am28 °FIce fog.2 mph100%30.54 "Hg0 mi
6:20 am30 °FIce fog.2 mph100%30.54 "Hg0 mi
5:20 am30 °FIce fog.2 mph100%30.54 "Hg0 mi
4:50 am32 °FIce fog.1 mph100%30.57 "Hg0 mi
4:20 am32 °FIce fog.2 mph100%30.57 "Hg0 mi
3:50 am32 °FIce fog.1 mph100%30.57 "Hg0 mi
3:20 am32 °FIce fog.2 mph100%30.57 "Hg0 mi
2:50 am32 °FIce fog.2 mph100%30.54 "Hg0 mi
2:20 am30 °FIce fog.1 mph100%30.54 "Hg0 mi
1:50 am30 °FIce fog.2 mph100%30.57 "Hg0 mi
1:20 am30 °FIce fog.3 mph100%30.57 "Hg0 mi
12:50 am30 °FIce fog.2 mph100%30.57 "Hg0 mi
12:20 am30 °FIce fog.2 mph100%30.57 "Hg0 mi
11:50 pm
Thu, Dec 8
28 °FIce fog.2 mph100%30.57 "Hg0 mi
11:20 pm30 °FIce fog.2 mph100%30.57 "Hg0 mi
10:50 pm30 °FIce fog.5 mph100%30.57 "Hg0 mi
10:20 pm30 °FIce fog.2 mph100%30.57 "Hg0 mi
9:50 pm30 °FIce fog.3 mph100%30.57 "Hg0 mi
9:20 pm30 °FIce fog.2 mph100%30.57 "Hg0 mi
8:50 pm30 °FIce fog.3 mph100%30.57 "Hg0 mi
8:20 pm30 °FIce fog.2 mph100%30.57 "Hg0 mi
7:50 pm32 °FIce fog.3 mph100%30.57 "Hg0 mi
7:20 pm32 °FIce fog.3 mph100%30.57 "Hg0 mi
6:50 pm32 °FIce fog.2 mph100%30.57 "Hg0 mi
6:20 pm32 °FIce fog.3 mph100%30.57 "Hg0 mi
5:50 pm30 °FIce fog.3 mph100%30.54 "Hg0 mi
5:20 pm32 °FIce fog.2 mph100%30.54 "Hg1 mi
4:50 pm34 °FFog.3 mph93%30.54 "Hg1 mi
4:20 pm34 °FFog.3 mph93%30.54 "Hg2 mi
3:50 pm34 °FFog.3 mph93%30.54 "Hg2 mi
3:20 pm34 °FFog.3 mph93%30.54 "Hg2 mi
2:50 pm34 °FFog.3 mph93%30.54 "Hg2 mi
2:20 pm34 °FFog.2 mph93%30.54 "Hg2 mi
1:50 pm34 °FFog.3 mph93%30.57 "Hg2 mi
1:20 pm34 °FFog.3 mph93%30.57 "Hg2 mi
12:50 pm34 °FFog.2 mph93%30.60 "Hg2 mi
12:20 pm34 °FFog.2 mph93%30.60 "Hg2 mi
11:50 am32 °FIce fog.5 mph100%30.63 "Hg2 mi
11:20 am32 °FIce fog.5 mph100%30.63 "Hg1 mi
10:50 am32 °FIce fog.3 mph93%30.63 "Hg1 mi
10:20 am32 °FIce fog.3 mph100%30.63 "Hg1 mi
9:50 am32 °FIce fog.5 mph100%30.63 "Hg2 mi
9:20 am32 °FIce fog.2 mph100%30.63 "Hg2 mi
Weather by CustomWeather, © 2016

See weather overviewHow to use our weather pages